GUOWANG

导读 | 豆包AI

"HULIANWANG DIGUI-105"是中国于2025年12月6日发射的低轨卫星,隶属于我国低轨互联卫星星座系统。该卫星旨在构建全球互联的通信网络,增强空间信息覆盖能力,为物联网、高速互联网等应用提供空间基础设施支撑,推动天地一体化信息网络建设,助力全球数字互联互通发展。

基本信息
目录编号:
66915
目录名称:
HULIANWANG DIGUI-105
国际标识:
2025-285A
轨道中心:
EARTH
卫星名称:
HULIANWANG DIGUI-105
卫星全名:
GUOWANG
卫星状态:
在轨 (已飞行170 天)
发射日期:
2025-12-06 UTC
国别 :
中国 (CN)
星等 :
--
轨道信息
数据来源 国际轨道数据
星历时间: 2026-05-24T12:38:59+0800
1天前
查看轨道信息
半长轴: 7527.459km
偏心率: 0.0001096
轨道倾角: 50.005°
近地点辐角 206.659°
升交点赤经 232.271°
平近点角 153.423°
近地点: 1148.496km
远地点: 1150.148km
周期: 108.326分钟
每日圈数: 13.29322
详细信息
使用方式:
暂无
2D轨道图
3D轨道图
轨道高度分析图
轨道倾角分析图
轨道综合分析图
查看轨道综合分析图